Regional Weather Roundup
Issued by NWS

Home | Current Version | Previous Version | Text Only | Print | Product List | Glossary Off
Versions: 1 2 3 4 5 6 7 8 9 10 11 12 13 14 15 16 17 18 19 20 21 22 23 24 25 26 27 28 29 30 31 32 33 34 35 36 37 38 39 40 41 42 43 44 45 46 47 48 49 50

000
ASUS43 KOAX 301210
RWRNE
OMARWRNE ALL

WEATHER ROUNDUP FOR NEBRASKA
NATIONAL WEATHER SERVICE OMAHA NE
700 AM CDT TUE JUN 30 2015

NOTES: SATELLITE DATA IS BEING USED TO AUGMENT CLOUD COVER ABOVE
       12000 FEET.
       "FAIR" INDICATES FEW OR NO CLOUDS BELOW 12,000 FEET WITH NO
       SIGNIFICANT WEATHER AND/OR OBSTRUCTIONS TO VISIBILITY.

  * THESE STATIONS DO NOT REPORT WEATHER SUCH AS RAIN...SNOW OR FOG.

NEZ001>004-019>022-054>056-301300-
NEBRASKA PANHANDLE

CITY           SKY/WX    TMP DP  RH WIND       PRES   REMARKS
SCOTTSBLUFF    PTCLDY    60  55  83 NW7       30.07R
6HR MIN TEMP:  58; 6HR MAX TEMP:  70;

ALLIANCE       PTCLDY    54  52  93 CALM      30.04F
6HR MIN TEMP:  53; 6HR MAX TEMP:  59;

CHADRON        PTCLDY    58  55  90 CALM      30.01R
6HR MIN TEMP:  57; 6HR MAX TEMP:  63;

KIMBALL          N/A    N/A N/A N/A MISG        N/A
SIDNEY         PTCLDY    58  56  93 W7        30.10S
6HR MIN TEMP:  57; 6HR MAX TEMP:  65;

$$

NEZ057>060-069>072-079>082-301300-
SOUTHWEST NEBRASKA

CITY           SKY/WX    TMP DP  RH WIND       PRES   REMARKS
NORTH PLATTE   MOCLDY    62  58  86 CALM      30.01F
6HR MIN TEMP:  60; 6HR MAX TEMP:  67; 6HR PCP: TRACE;

IMPERIAL       PTCLDY    62  57  83 W3        30.04R
6HR MIN TEMP:  60; 6HR MAX TEMP:  69;

LEXINGTON      CLEAR     62  59  91 CALM      29.99S
MCCOOK         CLEAR     62  57  83 SW3       30.00S
6HR MIN TEMP:  61; 6HR MAX TEMP:  74;

OGALLALA       MOCLDY    60  57  89 CALM      30.04S
$$

NEZ005>010-023>029-035>040-094-301300-
NORTH CENTRAL NEBRASKA

CITY           SKY/WX    TMP DP  RH WIND       PRES   REMARKS
VALENTINE      MOCLDY    64  60  87 SW7       29.96S
6HR MIN TEMP:  61; 6HR MAX TEMP:  66;

AINSWORTH      PTCLDY    68  57  68 SW7       29.97R
BROKEN BOW     CLEAR     63  59  87 CALM      30.00R
6HR MIN TEMP:  61; 6HR MAX TEMP:  65; 6HR PCP: TRACE;

O`NEILL        MOCLDY    68  63  84 NE5       29.99R
ORD            CLEAR     57  55  93 CALM      29.95F FOG
6HR MIN TEMP:  57; 6HR MAX TEMP:  66;

THEDFORD       MOCLDY    63  59  88 CALM      30.02S
$$

NEZ041-046>049-061>064-073>077-083>087-301300-
SOUTH CENTRAL NEBRASKA

CITY           SKY/WX    TMP DP  RH WIND       PRES   REMARKS
GRAND ISLAND   CLEAR     65  60  84 SW3       29.98R HAZE
6HR MIN TEMP:  64; 6HR MAX TEMP:  70;

AURORA         CLEAR     64  62  94 SW7       29.97S FOG
HASTINGS       CLEAR     67  59  75 CALM      29.98R
6HR MIN TEMP:  65; 6HR MAX TEMP:  71;

HEBRON         CLEAR     63  60  90 CALM      29.97R FOG
HOLDREGE       CLEAR     66  58  73 CALM      30.00S
KEARNEY *      CLEAR     64  59  82 S3        29.99S
YORK           CLEAR     66  63  88 SW5       29.97S
$$

NEZ011>018-030>034-042>045-301300-
NORTHEAST NEBRASKA

CITY           SKY/WX    TMP DP  RH WIND       PRES   REMARKS
NORFOLK        MOCLDY    69  63  81 CALM      29.97R HAZE
6HR MIN TEMP:  63; 6HR MAX TEMP:  69;

ALBION         PTCLDY    61  57  88 CALM      29.97R FOG
BLAIR          PTSUNNY   67  61  79 W7        29.94R
COLUMBUS *     PTCLDY    64  57  77 CALM      29.96S
FREMONT        PTCLDY    67  63  86 CALM      29.94R FOG
TEKAMAH        PTSUNNY   67  62  84 N5        29.95R HAZE
6HR MIN TEMP:  64; 6HR MAX TEMP:  69;

WAYNE          CLOUDY    65  63  92 W3        29.97R FOG
$$

NEZ050>053-065>068-078-088>093-301300-
SOUTHEAST NEBRASKA

CITY           SKY/WX    TMP DP  RH WIND       PRES   REMARKS
LINCOLN        CLEAR     68  62  81 CALM      29.95R HAZE
6HR MIN TEMP:  64; 6HR MAX TEMP:  69;

OMAHA EPPLEY   CLOUDY    70  64  81 CALM      29.93R
6HR MIN TEMP:  67; 6HR MAX TEMP:  70;

BEATRICE       CLEAR     65  62  90 CALM      29.97R FOG
FALLS CITY     PTSUNNY   65  62  90 W5        29.92S
6HR MIN TEMP:  64; 6HR MAX TEMP:  69;

NEBRASKA CITY  SUNNY     67  59  74 W8        29.94R
PLATTSMOUTH    MOSUNNY   67  60  78 CALM      29.94R
$$

NEZ044-045-051>053-067-301300-
OMAHA AREA

CITY           SKY/WX    TMP DP  RH WIND       PRES   REMARKS
OMAHA EPPLEY   CLOUDY    70  64  81 CALM      29.93R
6HR MIN TEMP:  67; 6HR MAX TEMP:  70;

BLAIR          PTSUNNY   67  61  79 W7        29.94R
FREMONT        PTCLDY    67  63  86 CALM      29.94R FOG
MILLARD        MOSUNNY   65  64  94 CALM      29.93R FOG
OFFUTT AFB     PTSUNNY   63  63  99 CALM      29.93R
PLATTSMOUTH    MOSUNNY   67  60  78 CALM      29.94R
WAHOO          PTSUNNY   73  61  66 W3        29.94R
$$



USA.gov is the U.S. government's official web portal to all federal, state and local government web resources and services.